Location: Newark
(45.0667°N, 7.8333°E)
Time: 14:13:53
(UTC+00:00)

XW-2B - Visible Passes

Search period start: 16 October 2019 00:00
Search period end: 26 October 2019 00:00
Orbit: 508 x 528 km, 97.5° (Epoch: 16 October)

Date Brightness Start Highest point End Pass type
(mag) Time Alt. Az. Time Alt. Az. Time Alt. Az.
16 Oct ? 17:51:34 10° WSW 17:53:17 13° W 17:55:01 10° WNW visible
17 Oct ? 17:36:27 10° SW 17:39:06 18° W 17:41:46 10° NW visible
18 Oct ? 05:05:07 10° NNE 05:08:36 36° E 05:12:03 10° SSE visible
18 Oct ? 17:21:45 10° SSW 17:24:57 26° W 17:28:09 10° NW visible
19 Oct ? 04:51:19 10° NE 04:54:28 25° E 04:57:35 10° SSE visible
19 Oct ? 17:07:18 10° SSW 17:10:49 37° W 17:14:21 10° NNW visible
20 Oct ? 04:37:42 10° NE 04:40:18 18° E 04:42:53 10° SE visible
21 Oct ? 04:24:29 10° ENE 04:26:06 12° E 04:27:43 10° ESE visible
23 Oct ? 17:46:51 10° SW 17:48:54 14° W 17:50:57 10° WNW visible
24 Oct ? 05:14:41 10° NNE 05:18:20 48° E 05:21:57 10° S visible
24 Oct ? 17:31:54 10° SW 17:34:42 20° W 17:37:33 10° NW visible
25 Oct ? 05:00:48 10° NNE 05:04:12 32° E 05:07:35 10° SSE visible
25 Oct ? 17:17:16 10° SSW 17:20:34 28° W 17:23:51 10° NW visible
